Merced, CA

7:07 AM PDT on April 21, 2018 (GMT -0700)
Merced Municipal-Macready

Weather History for KMCE - December, 2012

Change the Weather History Date:

Friday, December 7, 2012

  Actual Average Record
Temperature  
Mean Temperature 56 °F 46 °F  
Max Temperature 63 °F 55 °F 65 °F (2006)
Min Temperature 49 °F 36 °F 28 °F (2017)
Degree Days  
Heating Degree Days 9    
Month to date heating degree days 55  
Since 1 July heating degree days 378  
Growing Degree Days 4 (Base 50)    
Moisture  
Dew Point 47 °F    
Average Humidity 75    
Maximum Humidity 86    
Minimum Humidity 64    
Precipitation  
Precipitation 0.00 in 0.03 in 0.65 in (2004)
Month to date precipitation 1.10 0.21  
Year to date precipitation 8.48 11.19  
Since 1 July precipitation 2.97  
Snow  
Snow 0.00 in - - ()
Month to date snowfall 0.0  
Since 1 July snowfall 0.0  
Snow Depth 0.00 in    
Sea Level Pressure  
Sea Level Pressure 30.09 in    
Wind  
Wind Speed 4 mph (NW)    
Max Wind Speed 10 mph    
Max Gust Speed -    
Visibility 8 miles    
Events      
T = Trace of Precipitation, MM = Missing Value Source: NWS Daily Summary

Daily Weather History Graph

Daily Weather History Graph

Search for Another Location

Airport or City:

Astronomy

Dec. 07, 2012 Rise Set
Actual Time 7:03 AM PST 4:44 PM PST
Civil Twilight 6:34 AM PST 5:13 PM PST
Nautical Twilight 6:01 AM PST 5:45 PM PST
Astronomical Twilight 5:30 AM PST 6:17 PM PST
Moon 12:35 AM PST (12/7) 12:37 PM PST (12/7)
Length of Visible Light 10h 38m
Length of Day
9h 41m
Last Quarter, 37% of the Moon is Illuminated
Dec 7
Last Quarter
Dec 13
New
Dec 19
First Quarter
Dec 28
Full
Jan 4
Last Quarter

Hourly Weather History & Observations

Time (PST) Temp. Dew Point Humidity Pressure Visibility Wind Dir Wind Speed Gust Speed Precip Events Conditions
12:53 AM 54.0 °F 48.9 °F 83% 30.10 in 10.0 mi West 5.8 mph - N/A   Overcast
1:53 AM 53.1 °F 48.9 °F 86% 30.10 in 10.0 mi West 5.8 mph - N/A   Overcast
2:53 AM 54.0 °F 48.9 °F 83% 30.09 in 10.0 mi WNW 5.8 mph - N/A   Overcast
3:08 AM 53.6 °F 48.2 °F 82% 30.09 in 10.0 mi WNW 10.4 mph - N/A   Overcast
3:53 AM 54.0 °F 48.0 °F 80% 30.09 in 10.0 mi WNW 6.9 mph - N/A   Overcast
4:53 AM 54.0 °F 48.9 °F 83% 30.09 in 10.0 mi NW 4.6 mph - N/A   Overcast
5:53 AM 54.0 °F 48.0 °F 80% 30.10 in 10.0 mi NW 8.1 mph - N/A   Overcast
6:42 AM 51.8 °F 46.4 °F 82% 30.10 in 10.0 mi North 4.6 mph - N/A   Scattered Clouds
6:53 AM 51.1 °F 46.0 °F 83% 30.10 in 10.0 mi North 3.5 mph - N/A   Partly Cloudy
7:30 AM 50.0 °F 46.4 °F 87% 30.11 in 10.0 mi Calm Calm - N/A   Mostly Cloudy
7:53 AM 50.0 °F 46.0 °F 86% 30.12 in 10.0 mi Calm Calm - N/A   Scattered Clouds
8:53 AM 54.0 °F 46.0 °F 75% 30.13 in 10.0 mi NNW 4.6 mph - N/A   Partly Cloudy
9:20 AM 53.6 °F 46.4 °F 77% 30.14 in 10.0 mi WNW 4.6 mph - N/A   Mostly Cloudy
9:36 AM 53.6 °F 46.4 °F 77% 30.14 in 10.0 mi NW 5.8 mph - N/A   Scattered Clouds
9:53 AM 55.9 °F 46.9 °F 72% 30.14 in 10.0 mi NW 5.8 mph - N/A   Clear
10:53 AM 57.0 °F 48.0 °F 72% 30.14 in 10.0 mi WNW 4.6 mph - N/A   Partly Cloudy
11:53 AM 59.0 °F 48.9 °F 69% 30.12 in 10.0 mi Calm Calm - N/A   Clear
12:53 PM 60.1 °F 48.9 °F 67% 30.09 in 8.0 mi Calm Calm - N/A   Clear
1:53 PM 60.1 °F 48.9 °F 67% 30.07 in 10.0 mi Calm Calm - N/A   Clear
2:53 PM 61.0 °F 48.9 °F 64% 30.07 in 10.0 mi Calm Calm - N/A   Clear
3:53 PM 62.1 °F 48.0 °F 60% 30.07 in 10.0 mi Calm Calm - N/A   Clear
4:11 PM 60.8 °F 48.2 °F 63% 30.06 in 2.5 mi Calm Calm - N/A   Haze
4:26 PM 60.8 °F 48.2 °F 63% 30.06 in 5.0 mi Calm Calm - N/A   Haze
4:39 PM 59.0 °F 48.2 °F 67% 30.06 in 2.0 mi Calm Calm - N/A   Haze
5:15 PM 57.2 °F 48.2 °F 72% 30.07 in 3.0 mi Calm Calm - N/A   Haze
5:53 PM 55.0 °F 48.9 °F 80% 30.08 in 4.0 mi Calm Calm - N/A   Haze
6:53 PM 52.0 °F 48.0 °F 86% 30.08 in 7.0 mi Calm Calm - N/A   Clear
7:53 PM 51.1 °F 48.0 °F 89% 30.08 in 4.0 mi Calm Calm - N/A   Clear
8:53 PM 50.0 °F 46.9 °F 89% 30.09 in 5.0 mi Calm Calm - N/A   Clear
9:53 PM 48.9 °F 46.0 °F 90% 30.08 in 4.0 mi Calm Calm - 0.01 in   Clear
10:53 PM 48.0 °F 45.0 °F 89% 30.08 in 4.0 mi Calm Calm - N/A   Clear
11:49 PM 46.4 °F 44.6 °F 93% 30.07 in 2.5 mi Calm Calm - N/A   Clear
11:53 PM 46.0 °F 44.1 °F 93% 30.08 in 3.0 mi Calm Calm - N/A   Clear